TimeBST,TemperatureF,Dew PointF,Humidity,Sea Level PressureIn,VisibilityMPH,Wind Direction,Wind SpeedMPH,Gust SpeedMPH,PrecipitationIn,Events,Conditions,WindDirDegrees,DateUTC
12:20 AM,55.4,53.6,94,30.24,5.6,West,5.8,-,N/A,,Partly Cloudy,280,2011-10-12 23:20:00
12:50 AM,58,56,91,30.26,9,WNW,3.5,,,,Scattered Clouds,300,2011-10-12 23:50:00
12:50 AM,57.2,55.4,94,30.24,6.2,WNW,3.5,-,N/A,,Scattered Clouds,300,2011-10-12 23:50:00
1:20 AM,57.2,55.4,94,30.24,6.2,WNW,3.5,-,N/A,,Scattered Clouds,300,2011-10-13 00:20:00
1:50 AM,59.0,55.4,88,30.27,6.2,Calm,Calm,-,N/A,,Unknown,0,2011-10-13 00:50:00
2:20 AM,59.0,55.4,88,30.27,6.2,Variable,3.5,-,N/A,,Overcast,0,2011-10-13 01:20:00
2:50 AM,57.2,55.4,94,30.27,6.2,Variable,3.5,-,N/A,,Mostly Cloudy,0,2011-10-13 01:50:00
3:20 AM,57.2,55.4,94,30.27,5.0,North,2.3,-,N/A,,Unknown,360,2011-10-13 02:20:00
3:50 AM,58,55,87,30.29,6,NW,1.2,,,,Light Haze,320,2011-10-13 02:50:00
3:50 AM,57.2,55.4,94,30.27,4.3,North,2.3,-,N/A,,Unknown,360,2011-10-13 02:50:00
4:20 AM,57.2,55.4,94,30.30,4.3,Variable,3.5,-,N/A,,Partly Cloudy,0,2011-10-13 03:20:00
4:50 AM,57.2,55.4,94,30.30,4.3,North,3.5,-,N/A,,Scattered Clouds,350,2011-10-13 03:50:00
5:20 AM,59.0,55.4,88,30.30,5.0,Variable,3.5,-,N/A,,Scattered Clouds,0,2011-10-13 04:20:00
5:50 AM,57.2,53.6,88,30.30,5.6,ENE,4.6,-,N/A,,Scattered Clouds,70,2011-10-13 04:50:00
6:20 AM,55.4,53.6,94,30.30,6.2,Variable,3.5,-,N/A,,Partly Cloudy,0,2011-10-13 05:20:00
6:50 AM,56,53,86,30.32,8,NE,3.5,,,,,40,2011-10-13 05:50:00
6:50 AM,55.4,51.8,88,30.30,6.2,NE,4.6,-,N/A,,Partly Cloudy,50,2011-10-13 05:50:00
7:20 AM,57.2,53.6,88,30.33,5.6,NE,4.6,-,N/A,,Mostly Cloudy,50,2011-10-13 06:20:00
7:50 AM,57.2,53.6,88,30.33,5.0,East,3.5,-,N/A,,Mostly Cloudy,80,2011-10-13 06:50:00
8:20 AM,57.2,53.6,88,30.33,5.0,East,4.6,-,N/A,,Mostly Cloudy,80,2011-10-13 07:20:00
8:50 AM,59.0,53.6,82,30.36,5.6,North,4.6,-,N/A,,Mostly Cloudy,350,2011-10-13 07:50:00
9:20 AM,59.0,55.4,88,30.36,5.6,North,4.6,-,N/A,,Mostly Cloudy,350,2011-10-13 08:20:00
9:50 AM,59,55,81,30.38,10,NNE,4.6,,,,Scattered Clouds,20,2011-10-13 08:50:00
9:50 AM,59.0,55.4,88,30.36,6.2,NNE,4.6,-,N/A,,Mostly Cloudy,30,2011-10-13 08:50:00
10:20 AM,59.0,55.4,88,30.39,6.2,NE,5.8,-,N/A,,Scattered Clouds,50,2011-10-13 09:20:00
10:50 AM,60.8,53.6,77,30.39,6.2,ENE,5.8,-,N/A,,Scattered Clouds,60,2011-10-13 09:50:00
11:20 AM,62.6,53.6,72,30.39,6.2,ENE,8.1,-,N/A,,Scattered Clouds,60,2011-10-13 10:20:00
11:50 AM,62.6,55.4,77,30.39,6.2,NE,5.8,-,N/A,,Mostly Cloudy,40,2011-10-13 10:50:00
12:20 PM,60.8,53.6,77,30.39,6.2,ENE,6.9,-,N/A,,Scattered Clouds,60,2011-10-13 11:20:00
12:50 PM,61,54,71,30.40,11,ENE,6.9,,,,Partly Cloudy,60,2011-10-13 11:50:00
12:50 PM,60.8,53.6,77,30.39,6.2,ENE,6.9,-,N/A,,Mostly Cloudy,70,2011-10-13 11:50:00
1:20 PM,60.8,53.6,77,30.39,6.2,ENE,8.1,-,N/A,,Scattered Clouds,70,2011-10-13 12:20:00
1:50 PM,60.8,53.6,77,30.39,6.2,East,10.4,-,N/A,,Scattered Clouds,80,2011-10-13 12:50:00
2:20 PM,60.8,53.6,77,30.39,6.2,East,9.2,-,N/A,,Scattered Clouds,90,2011-10-13 13:20:00
2:50 PM,62.6,53.6,72,30.39,6.2,East,10.4,-,N/A,,Partly Cloudy,90,2011-10-13 13:50:00
3:20 PM,62.6,53.6,72,30.39,6.2,East,11.5,-,N/A,,Scattered Clouds,100,2011-10-13 14:20:00
3:50 PM,62,53,63,30.40,17,East,10.4,,,,Scattered Clouds,100,2011-10-13 14:50:00
3:50 PM,60.8,53.6,77,30.39,6.2,East,10.4,-,N/A,,Scattered Clouds,100,2011-10-13 14:50:00
4:20 PM,60.8,53.6,77,30.39,6.2,East,8.1,-,N/A,,Mostly Cloudy,90,2011-10-13 15:20:00
4:50 PM,60.8,53.6,77,30.42,6.2,ESE,9.2,-,N/A,,Scattered Clouds,110,2011-10-13 15:50:00
5:20 PM,59.0,51.8,77,30.42,6.2,East,10.4,-,N/A,,Scattered Clouds,100,2011-10-13 16:20:00
5:50 PM,59.0,53.6,82,30.42,5.6,ESE,8.1,-,N/A,,Scattered Clouds,110,2011-10-13 16:50:00
6:20 PM,59.0,51.8,77,30.42,6.2,East,8.1,-,N/A,,Scattered Clouds,100,2011-10-13 17:20:00
6:50 PM,57,52,76,30.43,9,East,8.1,,,,Mostly Cloudy,100,2011-10-13 17:50:00
6:50 PM,57.2,51.8,82,30.42,5.6,East,6.9,-,N/A,,Mostly Cloudy,100,2011-10-13 17:50:00
7:20 PM,57.2,51.8,82,30.42,6.2,East,5.8,-,N/A,,Mostly Cloudy,100,2011-10-13 18:20:00
7:50 PM,57.2,51.8,82,30.42,6.2,East,9.2,-,N/A,,Scattered Clouds,100,2011-10-13 18:50:00
8:20 PM,55.4,50.0,82,30.42,6.2,East,5.8,-,N/A,,Partly Cloudy,80,2011-10-13 19:20:00
8:50 PM,57.2,50.0,77,30.45,6.2,East,6.9,-,N/A,,Partly Cloudy,90,2011-10-13 19:50:00
9:20 PM,57.2,50.0,77,30.45,-9999.0,East,6.9,-,N/A,,Clear,100,2011-10-13 20:20:00
9:50 PM,57,49,67,30.45,14,ESE,9.2,,,,Overcast,110,2011-10-13 20:50:00
9:50 PM,55.4,50.0,82,30.45,-9999.0,ESE,8.1,-,N/A,,Clear,110,2011-10-13 20:50:00
10:20 PM,55.4,48.2,77,30.45,-9999.0,ESE,8.1,-,N/A,,Clear,110,2011-10-13 21:20:00
10:50 PM,55.4,48.2,77,30.45,-9999.0,East,8.1,-,N/A,,Clear,100,2011-10-13 21:50:00
11:20 PM,51.8,46.4,82,30.45,-9999.0,East,6.9,-,N/A,,Clear,100,2011-10-13 22:20:00
11:50 PM,51.8,46.4,82,30.45,-9999.0,East,5.8,-,N/A,,Clear,100,2011-10-13 22:50:00